Tracking 18917 objects as of 16-Jan-2018
HD Live streaming from Space Station
objects crossing your sky now

FENGYUN 1C DEB

Track FENGYUN 1C DEB now!
10-day predictions


NORAD ID: 30636
Int'l Code: 1999-025ANT
Perigee: 526.7 km
Apogee: 620.7 km
Inclination: 98.7 °
Period: 96.0 minutes
Semi major axis: 6944 km
RCS: 0.0143 m2 (small)
Launch date: May 10, 1999
Source: People's Republic of China (PRC)
Launch site: Taiyaun Space Center, China (TSC)

Note: This is SATELLITE DEBRIS
aabbcc
Your satellite tracking list
Your tracking list is empty




NASA's NSSDC Master Catalog

Two Line Element Set (TLE):
1 30636U 99025ANT 18016.08453402  .00001533  00000-0  12333-3 0  9992
2 30636  98.7473 323.2468 0067687 181.9889 178.1072 15.00105210584541
Source of the keplerian elements: AFSPC